Dades meteomassalio
Diari Summary for Juny 4, 2017 Units:  English    Metric   Both
« Previous Day
Next Day »
Diari Semanal Mensual Anual Personalitzat
  Maxima: Minima: Mijana:
Temperatura: TemperatureC °F 13.7 °F 15.5 °F
Rosada: DewpointC °F 11.9 °F 13.6 °F
Humitat: Humidity % 78 % 88 %
Velocitat del vent: WindSpeedKMH mph 0.0 mph 4.8 mph
Racha vent: WindSpeedGustKMH mph - -
Vent:- - SW
Pressio: PressurehPa in 1014.8 in -
Pluja: 33.5 in    
Historical Graphs
 
 
Tabular Data for Juny 4, 2017
Time Temperature Dew Point Pressure Wind Wind Speed Wind Gust Humidity Rainfall Rate (Hourly) solar Conditions
TemperatureC °F DewpointC °F PressurehPa in Calm     Humidity % HourlyPrecipMM in SolarRadiationWatts/m^2 W/m2 Conditions
00:02 18.1 °F 14.6 °F 1018.8 in WSW 7.4 mph 7.4 mph 80 % 0.0 in 0.0 W/m2 RA
00:07 18.1 °F 14.6 °F 1018.8 in Calm     80 % 0.0 in 0.0 W/m2 CLR
00:12 18.2 °F 14.4 °F 1018.8 in WSW 7.4 mph 7.4 mph 79 % 0.0 in 0.0 W/m2 CLR
00:17 18.2 °F 14.5 °F 1018.8 in WSW 4.8 mph 4.8 mph 79 % 0.0 in 0.0 W/m2 CLR
00:22 18.2 °F 14.4 °F 1018.5 in Calm     79 % 0.0 in 0.0 W/m2 CLR
00:27 18.2 °F 14.3 °F 1018.5 in West 11.1 mph 11.1 mph 78 % 0.0 in 0.0 W/m2 CLR
00:32 18.2 °F 14.3 °F 1018.5 in West 9.3 mph 9.3 mph 78 % 0.0 in 0.0 W/m2 CLR
00:37 18.2 °F 14.3 °F 1018.5 in West 9.3 mph 9.3 mph 78 % 0.0 in 0.0 W/m2 CLR
00:42 18.1 °F 14.2 °F 1018.5 in Calm     78 % 0.0 in 0.0 W/m2 CLR
00:47 17.9 °F 14.2 °F 1018.5 in West 7.4 mph 7.4 mph 79 % 0.0 in 0.0 W/m2 CLR
00:52 17.9 °F 14.2 °F 1018.5 in Calm     79 % 0.0 in 0.0 W/m2 CLR
00:57 17.8 °F 14.3 °F 1018.5 in Calm     80 % 0.0 in 0.0 W/m2 CLR
01:02 17.6 °F 14.1 °F 1018.5 in Calm     80 % 0.0 in 0.0 W/m2 CLR
01:07 17.4 °F 14.2 °F 1018.5 in Calm     81 % 0.0 in 0.0 W/m2 CLR
01:12 17.3 °F 14.2 °F 1018.5 in Calm     82 % 0.0 in 0.0 W/m2 CLR
01:17 17.2 °F 14.1 °F 1018.5 in Calm     82 % 0.0 in 0.0 W/m2 CLR
01:22 17.1 °F 14.0 °F 1018.5 in Calm     82 % 0.0 in 0.0 W/m2 CLR
01:23 17.1 °F 14.0 °F 1018.5 in Calm     82 % 0.0 in 0.0 W/m2 CLR
01:28 17.2 °F 14.1 °F 1018.5 in Calm     82 % 0.0 in 0.0 W/m2 CLR
01:33 17.2 °F 14.1 °F 1018.5 in Calm     82 % 0.0 in 0.0 W/m2 CLR
01:38 17.2 °F 14.1 °F 1018.2 in West 7.4 mph 7.4 mph 82 % 0.0 in 0.0 W/m2 CLR
01:43 17.2 °F 14.1 °F 1018.5 in Calm     82 % 0.0 in 0.0 W/m2 CLR
01:48 17.2 °F 13.9 °F 1018.5 in WNW 7.4 mph 7.4 mph 81 % 0.0 in 0.0 W/m2 CLR
01:53 17.2 °F 13.9 °F 1018.5 in West 9.3 mph 9.3 mph 81 % 0.0 in 0.0 W/m2 CLR
01:58 17.2 °F 13.9 °F 1018.5 in Calm     81 % 0.0 in 0.0 W/m2 CLR
02:03 17.2 °F 13.9 °F 1018.5 in Calm     81 % 0.0 in 0.0 W/m2 CLR
02:08 17.2 °F 13.9 °F 1018.5 in Calm     81 % 0.0 in 0.0 W/m2 CLR
02:13 17.1 °F 13.8 °F 1018.5 in Calm     81 % 0.0 in 0.0 W/m2 CLR
02:18 17.0 °F 13.7 °F 1018.5 in Calm     81 % 0.0 in 0.0 W/m2 CLR
02:23 16.9 °F 13.7 °F 1018.5 in Calm     81 % 0.0 in 0.0 W/m2 CLR
02:28 16.8 °F 13.6 °F 1018.5 in Calm     81 % 0.0 in 0.0 W/m2 CLR
02:33 16.7 °F 13.6 °F 1018.5 in Calm     82 % 0.0 in 0.0 W/m2 CLR
02:38 16.6 °F 13.5 °F 1018.5 in Calm     82 % 0.0 in 0.0 W/m2 CLR
02:43 16.6 °F 13.4 °F 1018.5 in WNW 7.4 mph 7.4 mph 82 % 0.0 in 0.0 W/m2 CLR
02:48 16.5 °F 13.4 °F 1018.5 in West 7.4 mph 7.4 mph 82 % 0.0 in 0.0 W/m2 CLR
02:53 16.4 °F 13.3 °F 1018.5 in NW 7.4 mph 7.4 mph 82 % 0.0 in 0.0 W/m2 CLR
02:58 16.3 °F 13.2 °F 1018.8 in West 7.4 mph 7.4 mph 82 % 0.0 in 0.0 W/m2 CLR
03:03 16.2 °F 13.2 °F 1018.8 in Calm     82 % 0.0 in 0.0 W/m2 CLR
03:08 16.1 °F 13.1 °F 1018.8 in Calm     82 % 0.0 in 0.0 W/m2 CLR
03:13 16.0 °F 12.9 °F 1018.8 in Calm     82 % 0.0 in 0.0 W/m2 CLR
03:19 15.9 °F 13.1 °F 1018.5 in Calm     83 % 0.0 in 0.0 W/m2 CLR
03:24 15.8 °F 12.9 °F 1018.8 in Calm     83 % 0.0 in 0.0 W/m2 CLR
03:29 15.8 °F 12.9 °F 1018.8 in Calm     83 % 0.0 in 0.0 W/m2 CLR
03:34 15.7 °F 12.8 °F 1018.8 in Calm     83 % 0.0 in 0.0 W/m2 CLR
03:39 15.6 °F 12.9 °F 1018.8 in Calm     84 % 0.0 in 0.0 W/m2 CLR
03:44 15.4 °F 12.8 °F 1018.8 in Calm     84 % 0.0 in 0.0 W/m2 CLR
03:49 15.4 °F 12.9 °F 1018.8 in Calm     85 % 0.0 in 0.0 W/m2 CLR
03:54 15.3 °F 12.8 °F 1018.8 in Calm     85 % 0.0 in 0.0 W/m2 CLR
03:56 15.2 °F 12.7 °F 1018.8 in Calm     85 % 0.0 in 0.0 W/m2 CLR
04:01 15.2 °F 12.8 °F 1018.8 in Calm     86 % 0.0 in 0.0 W/m2 CLR
04:06 15.1 °F 12.7 °F 1018.8 in Calm     86 % 0.0 in 0.0 W/m2 CLR
04:11 14.9 °F 12.6 °F 1018.5 in Calm     86 % 0.0 in 0.0 W/m2 CLR
04:16 14.9 °F 12.7 °F 1018.5 in Calm     87 % 0.0 in 0.0 W/m2 CLR
04:21 14.8 °F 12.7 °F 1018.5 in Calm     87 % 0.0 in 0.0 W/m2 CLR
04:26 14.8 °F 12.6 °F 1018.8 in Calm     87 % 0.0 in 0.0 W/m2 CLR
04:31 14.8 °F 12.8 °F 1018.8 in Calm     88 % 0.0 in 0.0 W/m2 CLR
04:36 14.7 °F 12.8 °F 1018.8 in Calm     88 % 0.0 in 0.0 W/m2 CLR
04:41 14.7 °F 12.7 °F 1018.5 in Calm     88 % 0.0 in 0.0 W/m2 CLR
04:46 14.6 °F 12.6 °F 1018.5 in Calm     88 % 0.0 in 0.0 W/m2 CLR
04:51 14.5 °F 12.6 °F 1018.5 in Calm     88 % 0.0 in 0.0 W/m2 CLR
04:56 14.4 °F 12.5 °F 1018.8 in Calm     88 % 0.0 in 0.0 W/m2 CLR
05:01 14.4 °F 12.7 °F 1018.8 in Calm     89 % 0.0 in 0.0 W/m2 CLR
05:06 14.4 °F 12.6 °F 1018.8 in Calm     89 % 0.0 in 0.0 W/m2 CLR
05:11 14.4 °F 12.6 °F 1018.8 in Calm     89 % 0.0 in 0.0 W/m2 CLR
05:16 14.4 °F 12.6 °F 1018.5 in Calm     89 % 0.0 in 0.0 W/m2 CLR
05:21 14.4 °F 12.6 °F 1018.5 in Calm     89 % 0.0 in 0.0 W/m2 CLR
05:26 14.3 °F 12.6 °F 1018.5 in Calm     89 % 0.0 in 0.0 W/m2 CLR
05:31 14.3 °F 12.7 °F 1018.2 in Calm     90 % 0.0 in 0.0 W/m2 CLR
05:36 14.3 °F 12.7 °F 1018.2 in Calm     90 % 0.0 in 0.0 W/m2 CLR
05:41 14.2 °F 12.6 °F 1018.2 in Calm     90 % 0.0 in 0.0 W/m2 CLR
05:46 14.2 °F 12.6 °F 1017.8 in Calm     90 % 0.0 in 0.0 W/m2 CLR
05:51 14.1 °F 12.5 °F 1018.2 in Calm     90 % 0.0 in 0.0 W/m2 CLR
05:56 14.1 °F 12.4 °F 1018.2 in Calm     90 % 0.0 in 0.0 W/m2 CLR
06:01 13.9 °F 12.3 °F 1018.2 in Calm     90 % 0.0 in 0.0 W/m2 CLR
06:06 13.9 °F 12.3 °F 1017.8 in Calm     90 % 0.0 in 0.0 W/m2 CLR
06:11 13.9 °F 12.4 °F 1017.8 in Calm     91 % 0.0 in 0.0 W/m2 CLR
06:16 13.9 °F 12.4 °F 1017.8 in Calm     91 % 0.0 in 0.0 W/m2 CLR
06:21 13.9 °F 12.4 °F 1017.8 in Calm     91 % 0.0 in 0.0 W/m2 OVC
06:26 14.0 °F 12.6 °F 1017.8 in Calm     91 % 0.0 in 0.0 W/m2 OVC
06:31 13.9 °F 12.5 °F 1017.8 in Calm     91 % 0.0 in 0.0 W/m2 OVC
06:36 13.9 °F 12.5 °F 1018.2 in Calm     91 % 0.0 in 5.0 W/m2 OVC
06:41 13.9 °F 12.5 °F 1018.2 in Calm     91 % 0.0 in 9.0 W/m2 BKN
06:46 13.9 °F 12.5 °F 1018.2 in Calm     91 % 0.0 in 11.0 W/m2 BKN
06:51 13.9 °F 12.3 °F 1018.2 in Calm     90 % 0.0 in 12.0 W/m2 BKN
06:56 14.0 °F 12.6 °F 1018.5 in Calm     91 % 0.0 in 16.0 W/m2 BKN
07:01 14.1 °F 12.6 °F 1018.5 in Calm     91 % 0.0 in 21.0 W/m2 BKN
07:06 14.1 °F 12.5 °F 1018.5 in Calm     90 % 0.0 in 23.0 W/m2 BKN
07:11 14.1 °F 12.5 °F 1018.5 in Calm     90 % 0.0 in 26.0 W/m2 BKN
07:16 14.2 °F 12.6 °F 1018.5 in Calm     90 % 0.0 in 28.0 W/m2 BKN
07:21 14.3 °F 12.7 °F 1018.5 in Calm     90 % 0.0 in 35.0 W/m2 BKN
07:26 14.3 °F 12.5 °F 1018.5 in NW 6.4 mph 6.4 mph 89 % 0.0 in 42.0 W/m2 BKN
07:31 14.3 °F 12.4 °F 1018.5 in WNW 5.6 mph   88 % 0.0 in 44.0 W/m2 BKN
07:36 14.4 °F 12.3 °F 1018.5 in NW 5.6 mph 5.6 mph 87 % 0.0 in 44.0 W/m2 BKN
07:41 14.4 °F 12.3 °F 1018.8 in Calm     87 % 0.0 in 40.0 W/m2 BKN
07:46 14.4 °F 12.1 °F 1018.8 in WNW 3.7 mph   86 % 0.0 in 47.0 W/m2 BKN
07:51 14.5 °F 12.2 °F 1018.5 in Calm     86 % 0.0 in 63.0 W/m2 SCT
07:56 14.5 °F 12.2 °F 1018.8 in Calm     86 % 0.0 in 76.0 W/m2 SCT
08:01 14.6 °F 12.3 °F 1018.8 in Calm     86 % 0.0 in 42.0 W/m2 SCT
08:06 14.6 °F 12.1 °F 1018.8 in WNW 3.7 mph 3.7 mph 85 % 0.0 in 21.0 W/m2 SCT
08:11 14.6 °F 12.1 °F 1018.8 in NW 5.6 mph 5.6 mph 85 % 0.0 in 14.0 W/m2 BKN
08:16 14.6 °F 12.1 °F 1019.2 in Calm     85 % 0.0 in 14.0 W/m2 BKN
08:21 14.6 °F 12.2 °F 1018.8 in Calm     86 % 0.0 in 26.0 W/m2 BKN
08:26 14.4 °F 12.1 °F 1019.2 in ENE 3.2 mph 3.2 mph 86 % 0.0 in 32.0 W/m2 BKN
08:31 14.4 °F 12.3 °F 1019.2 in Calm     87 % 0.3 in 33.0 W/m2 RA
08:36 14.3 °F 12.2 °F 1019.2 in Calm     87 % 0.3 in 26.0 W/m2 BKN
08:41 14.3 °F 12.3 °F 1019.5 in Calm     88 % 0.3 in 25.0 W/m2 BKN
08:46 14.2 °F 12.3 °F 1019.5 in Calm     88 % 0.3 in 18.0 W/m2 BKN
08:51 14.1 °F 12.2 °F 1019.5 in West 1.6 mph   88 % 0.5 in 16.0 W/m2 RA
08:56 14.1 °F 12.3 °F 1019.5 in Calm     89 % 1.0 in 18.0 W/m2 RA
09:01 14.0 °F 12.2 °F 1019.5 in Calm     89 % 1.0 in 23.0 W/m2 BKN
09:06 13.9 °F 12.2 °F 1019.9 in Calm     89 % 1.0 in 21.0 W/m2 BKN
09:11 13.9 °F 12.1 °F 1019.9 in Calm     89 % 1.0 in 19.0 W/m2 BKN
09:16 13.9 °F 12.3 °F 1019.9 in Calm     90 % 1.0 in 21.0 W/m2 BKN
09:21 13.8 °F 12.2 °F 1019.9 in Calm     90 % 1.0 in 21.0 W/m2 BKN
09:41 13.7 °F 11.9 °F 1019.9 in ENE 5.6 mph   89 % 1.0 in 42.0 W/m2 SCT
09:46 13.7 °F 11.9 °F 1019.9 in Calm     89 % 1.0 in 30.0 W/m2 BKN
09:51 13.7 °F 11.9 °F 1019.5 in Calm     89 % 0.8 in 39.0 W/m2 BKN
09:56 13.7 °F 12.1 °F 1019.5 in Calm     90 % 0.3 in 74.0 W/m2 BKN
10:01 13.8 °F 12.2 °F 1019.2 in Calm     90 % 0.3 in 114.0 W/m2 FEW
10:06 13.8 °F 12.2 °F 1019.2 in Calm     90 % 0.3 in 135.0 W/m2 CLR
10:11 13.9 °F 12.3 °F 1018.8 in Calm     90 % 0.3 in 156.0 W/m2 CLR
10:12 13.9 °F 12.3 °F 1018.8 in Calm     90 % 0.3 in 169.0 W/m2 CLR
10:17 14.0 °F 12.4 °F 1018.8 in Calm     90 % 0.3 in 295.0 W/m2 CLR
10:22 14.2 °F 12.6 °F 1018.8 in Calm     90 % 0.3 in 206.0 W/m2 CLR
10:27 14.3 °F 12.7 °F 1018.5 in Calm     90 % 0.5 in 156.0 W/m2 RA
10:32 14.3 °F 12.6 °F 1018.5 in Calm     89 % 0.5 in 246.0 W/m2 CLR
10:33 14.3 °F 12.6 °F 1018.5 in Calm     89 % 0.5 in 320.0 W/m2 CLR
10:38 14.4 °F 12.7 °F 1018.5 in Calm     89 % 0.3 in 223.0 W/m2 CLR
10:43 14.4 °F 12.7 °F 1018.5 in Calm     89 % 0.3 in 248.0 W/m2 CLR
10:48 14.5 °F 12.7 °F 1018.2 in Calm     89 % 0.3 in 229.0 W/m2 CLR
10:53 14.6 °F 12.6 °F 1018.5 in South 1.9 mph 1.9 mph 88 % 0.3 in 207.0 W/m2 CLR
10:58 14.6 °F 12.6 °F 1018.8 in Calm     88 % 0.3 in 214.0 W/m2 CLR
11:03 14.7 °F 12.9 °F 1018.8 in South 11.1 mph 11.1 mph 89 % 0.3 in 132.0 W/m2 CLR
11:08 14.7 °F 12.9 °F 1018.8 in South 11.3 mph 11.3 mph 89 % 0.3 in 107.0 W/m2 CLR
11:13 14.8 °F 13.0 °F 1018.8 in South 13.0 mph 13.0 mph 89 % 0.3 in 88.0 W/m2 CLR
11:18 14.8 °F 13.1 °F 1018.8 in South 14.8 mph 14.8 mph 89 % 0.3 in 77.0 W/m2 CLR
11:23 14.8 °F 13.1 °F 1018.8 in SSW 9.3 mph 9.3 mph 89 % 0.3 in 63.0 W/m2 FEW
11:28 14.8 °F 13.1 °F 1019.2 in SSW 1.9 mph 1.9 mph 89 % 0.0 in 42.0 W/m2 SCT
11:33 14.8 °F 13.1 °F 1018.8 in Calm     89 % 0.0 in 54.0 W/m2 SCT
11:38 14.9 °F 13.1 °F 1018.8 in SW 5.6 mph 5.6 mph 89 % 0.0 in 62.0 W/m2 SCT
11:43 14.9 °F 13.1 °F 1019.2 in Calm     89 % 0.0 in 40.0 W/m2 SCT
11:48 14.9 °F 13.2 °F 1018.8 in Calm     89 % 0.0 in 56.0 W/m2 SCT
11:53 15.0 °F 13.2 °F 1018.8 in WSW 1.9 mph 1.9 mph 89 % 0.0 in 128.0 W/m2 SCT
11:58 15.1 °F 13.3 °F 1018.5 in SW 5.6 mph 5.6 mph 89 % 0.0 in 146.0 W/m2 CLR
12:03 15.2 °F 13.4 °F 1018.2 in Calm     89 % 0.0 in 186.0 W/m2 CLR
12:08 15.2 °F 13.4 °F 1018.2 in Calm     89 % 0.0 in 174.0 W/m2 CLR
12:18 15.4 °F 13.6 °F 1017.8 in East 5.6 mph 5.6 mph 89 % 1.3 in 125.0 W/m2 RA
12:23 15.2 °F 13.6 °F 1017.5 in ESE 11.1 mph 11.1 mph 90 % 2.0 in 114.0 W/m2 RA
12:28 14.9 °F 13.3 °F 1017.2 in East 5.6 mph   90 % 3.0 in 132.0 W/m2 RA
12:33 14.9 °F 13.4 °F 1017.5 in Calm     91 % 3.3 in 155.0 W/m2 RA
12:38 15.0 °F 13.6 °F 1017.8 in Calm     91 % 3.3 in 199.0 W/m2 CLR
12:43 15.0 °F 13.6 °F 1017.8 in Calm     91 % 3.3 in 223.0 W/m2 CLR
12:48 15.1 °F 13.7 °F 1017.8 in Calm     91 % 3.3 in 320.0 W/m2 CLR
12:53 15.2 °F 13.7 °F 1017.8 in Calm     91 % 3.3 in 364.0 W/m2 CLR
12:55 15.2 °F 13.8 °F 1017.8 in Calm     91 % 3.3 in 387.0 W/m2 CLR
13:00 15.2 °F 13.8 °F 1017.8 in Calm     91 % 3.3 in 176.0 W/m2 CLR
13:05 15.3 °F 13.9 °F 1017.8 in Calm     91 % 3.3 in 148.0 W/m2 CLR
13:10 15.4 °F 13.9 °F 1017.8 in Calm     91 % 3.3 in 132.0 W/m2 CLR
13:15 15.4 °F 14.0 °F 1017.8 in Calm     91 % 2.8 in 213.0 W/m2 CLR
13:20 15.7 °F 14.3 °F 1017.5 in Calm     91 % 1.5 in 434.0 W/m2 CLR
13:25 15.8 °F 14.4 °F 1017.5 in Calm     91 % 0.5 in 271.0 W/m2 CLR
13:30 15.9 °F 14.3 °F 1017.5 in Calm     90 % 0.3 in 309.0 W/m2 CLR
13:35 16.0 °F 14.3 °F 1017.5 in Calm     90 % 0.0 in 434.0 W/m2 CLR
13:40 16.3 °F 14.6 °F 1017.5 in Calm     90 % 0.0 in 304.0 W/m2 CLR
13:45 16.4 °F 14.6 °F 1017.5 in North 6.4 mph 6.4 mph 89 % 0.0 in 223.0 W/m2 CLR
13:50 16.3 °F 14.3 °F 1017.5 in NNE 3.7 mph   88 % 0.0 in 127.0 W/m2 CLR
13:55 16.3 °F 14.3 °F 1017.5 in Calm     88 % 0.0 in 98.0 W/m2 CLR
14:00 16.4 °F 14.6 °F 1017.2 in NE 9.3 mph 9.3 mph 89 % 0.0 in 100.0 W/m2 CLR
14:05 16.3 °F 14.3 °F 1017.5 in NNE 1.9 mph   88 % 0.0 in 100.0 W/m2 CLR
14:10 16.3 °F 14.3 °F 1017.2 in NE 5.6 mph 5.6 mph 88 % 0.0 in 134.0 W/m2 CLR
14:15 16.3 °F 14.5 °F 1017.2 in Calm     89 % 0.0 in 257.0 W/m2 CLR
14:20 16.4 °F 14.6 °F 1016.8 in ENE 11.1 mph 11.1 mph 89 % 0.0 in 466.0 W/m2 CLR
14:25 16.6 °F 14.8 °F 1016.8 in NE 9.3 mph 9.3 mph 89 % 0.0 in 422.0 W/m2 CLR
14:30 16.7 °F 14.7 °F 1016.8 in ENE 7.4 mph 7.4 mph 88 % 0.0 in 396.0 W/m2 CLR
14:35 16.7 °F 14.6 °F 1016.8 in ENE 5.6 mph   87 % 0.0 in 559.0 W/m2 CLR
14:40 16.8 °F 14.6 °F 1016.8 in NE 5.6 mph 5.6 mph 87 % 0.0 in 522.0 W/m2 CLR
14:45 17.0 °F 14.8 °F 1016.5 in East 7.4 mph 7.4 mph 87 % 0.0 in 519.0 W/m2 CLR
14:50 16.9 °F 14.8 °F 1016.5 in NE 11.3 mph 11.3 mph 87 % 0.0 in 619.0 W/m2 CLR
14:55 17.1 °F 15.1 °F 1016.5 in NNE 8.0 mph 8.0 mph 88 % 0.0 in 506.0 W/m2 CLR
15:00 17.2 °F 15.2 °F 1016.5 in Calm     88 % 0.0 in 253.0 W/m2 CLR
15:05 17.2 °F 15.2 °F 1016.1 in Calm     88 % 0.0 in 388.0 W/m2 CLR
15:10 17.3 °F 15.1 °F 1016.1 in ENE 5.6 mph 5.6 mph 87 % 0.0 in 350.0 W/m2 CLR
15:15 17.4 °F 15.2 °F 1015.8 in Calm     87 % 0.0 in 366.0 W/m2 CLR
15:20 17.5 °F 15.3 °F 1016.1 in NE 8.0 mph 8.0 mph 87 % 0.0 in 306.0 W/m2 CLR
15:25 17.6 °F 15.6 °F 1016.1 in NE 9.3 mph 9.3 mph 88 % 0.0 in 227.0 W/m2 CLR
15:30 17.6 °F 15.4 °F 1016.1 in ENE 5.6 mph 5.6 mph 87 % 0.0 in 195.0 W/m2 CLR
15:35 17.6 °F 15.4 °F 1016.1 in NE 7.4 mph 7.4 mph 87 % 0.0 in 172.0 W/m2 CLR
15:40 17.6 °F 15.4 °F 1016.1 in Calm     87 % 0.0 in 193.0 W/m2 CLR
15:45 17.6 °F 15.6 °F 1015.8 in Calm     88 % 0.5 in 258.0 W/m2 RA
15:50 17.6 °F 15.6 °F 1015.8 in ENE 4.8 mph 4.8 mph 88 % 0.5 in 413.0 W/m2 CLR
15:55 17.6 °F 15.6 °F 1015.8 in ENE 7.4 mph 7.4 mph 88 % 0.5 in 315.0 W/m2 CLR
16:00 17.6 °F 15.8 °F 1015.8 in Calm     89 % 0.5 in 206.0 W/m2 CLR
16:05 17.6 °F 15.6 °F 1016.1 in Calm     88 % 0.5 in 98.0 W/m2 CLR
16:10 17.6 °F 15.7 °F 1016.1 in Calm     89 % 0.5 in 146.0 W/m2 CLR
16:15 17.5 °F 15.7 °F 1016.1 in Calm     89 % 0.5 in 153.0 W/m2 CLR
16:20 17.6 °F 15.7 °F 1015.8 in Calm     89 % 0.5 in 220.0 W/m2 CLR
16:25 17.6 °F 15.7 °F 1016.1 in Calm     89 % 0.5 in 141.0 W/m2 CLR
16:30 17.5 °F 15.7 °F 1015.8 in Calm     89 % 0.5 in 244.0 W/m2 CLR
16:35 17.6 °F 15.7 °F 1015.8 in Calm     89 % 0.5 in 192.0 W/m2 CLR
16:40 17.7 °F 15.9 °F 1015.5 in Calm     89 % 0.5 in 199.0 W/m2 CLR
16:45 17.8 °F 16.0 °F 1015.5 in ENE 5.6 mph 5.6 mph 89 % 0.0 in 223.0 W/m2 CLR
16:50 17.8 °F 15.9 °F 1015.5 in NE 5.6 mph 5.6 mph 89 % 0.0 in 176.0 W/m2 CLR
16:56 17.8 °F 15.8 °F 1015.5 in Calm     88 % 0.0 in 174.0 W/m2 CLR
17:01 17.8 °F 16.0 °F 1015.5 in Calm     89 % 0.0 in 134.0 W/m2 CLR
17:06 17.8 °F 15.8 °F 1015.5 in NE 9.3 mph 9.3 mph 88 % 0.0 in 128.0 W/m2 CLR
17:11 17.7 °F 15.7 °F 1015.1 in North 14.8 mph 14.8 mph 88 % 0.0 in 91.0 W/m2 CLR
17:16 17.5 °F 15.7 °F 1015.1 in North 14.8 mph 14.8 mph 89 % 0.0 in 83.0 W/m2 CLR
17:21 17.4 °F 15.6 °F 1015.1 in North 11.3 mph 11.3 mph 89 % 0.0 in 93.0 W/m2 CLR
17:26 17.3 °F 15.4 °F 1015.1 in North 5.6 mph   89 % 0.0 in 63.0 W/m2 FEW
17:31 17.3 °F 15.6 °F 1015.1 in North 9.7 mph 9.7 mph 90 % 0.0 in 79.0 W/m2 FEW
17:36 17.3 °F 15.6 °F 1015.1 in North 11.1 mph 11.1 mph 90 % 0.0 in 84.0 W/m2 FEW
17:41 17.2 °F 15.6 °F 1015.1 in NNW 9.3 mph 9.3 mph 90 % 0.0 in 65.0 W/m2 FEW
17:46 17.1 °F 15.4 °F 1015.1 in North 11.1 mph 11.1 mph 90 % 0.0 in 69.0 W/m2 FEW
17:51 17.1 °F 15.4 °F 1015.5 in North 9.3 mph 9.3 mph 90 % 0.0 in 54.0 W/m2 SCT
17:56 17.1 °F 15.4 °F 1015.1 in NNW 6.4 mph 6.4 mph 90 % 0.0 in 51.0 W/m2 SCT
18:01 17.1 °F 15.4 °F 1015.1 in NNW 9.3 mph 9.3 mph 90 % 0.0 in 37.0 W/m2 SCT
18:06 17.0 °F 15.3 °F 1015.1 in Calm     90 % 0.0 in 53.0 W/m2 BKN
18:11 17.0 °F 15.3 °F 1014.8 in Calm     90 % 0.0 in 93.0 W/m2 SCT
18:16 17.0 °F 15.3 °F 1014.8 in Calm     90 % 0.0 in 70.0 W/m2 FEW
18:21 17.0 °F 15.3 °F 1015.1 in Calm     90 % 0.0 in 53.0 W/m2 FEW
18:26 17.0 °F 15.3 °F 1015.1 in NW 8.0 mph 8.0 mph 90 % 0.0 in 63.0 W/m2 SCT
18:31 16.9 °F 15.2 °F 1014.8 in NNW 7.4 mph 7.4 mph 90 % 0.0 in 72.0 W/m2 SCT
18:32 16.9 °F 15.2 °F 1015.1 in North 7.4 mph 7.4 mph 90 % 0.0 in 63.0 W/m2 FEW
18:37 16.8 °F 15.2 °F 1015.1 in NNW 13.0 mph 13.0 mph 90 % 0.0 in 49.0 W/m2 FEW
18:42 16.6 °F 14.9 °F 1015.1 in NNW 7.4 mph 7.4 mph 90 % 0.0 in 53.0 W/m2 SCT
18:47 16.4 °F 14.7 °F 1015.1 in NNW 8.0 mph 8.0 mph 90 % 0.0 in 69.0 W/m2 SCT
18:52 16.4 °F 14.9 °F 1014.8 in NNW 7.4 mph 7.4 mph 91 % 0.0 in 60.0 W/m2 FEW
18:57 16.3 °F 14.8 °F 1014.8 in NNW 9.3 mph 9.3 mph 91 % 0.0 in 30.0 W/m2 SCT
19:02 16.2 °F 14.8 °F 1015.1 in NW 9.3 mph 9.3 mph 91 % 0.0 in 21.0 W/m2 BKN
19:07 16.2 °F 14.7 °F 1015.1 in NW 13.0 mph 13.0 mph 91 % 0.0 in 25.0 W/m2 BKN
19:12 16.1 °F 14.6 °F 1015.1 in NW 11.1 mph 11.1 mph 91 % 0.0 in 26.0 W/m2 BKN
19:13 16.1 °F 14.6 °F 1015.1 in NW 11.1 mph 11.1 mph 91 % 0.0 in 26.0 W/m2 BKN
19:18 16.0 °F 14.6 °F 1015.1 in NNW 7.4 mph 7.4 mph 91 % 0.0 in 16.0 W/m2 BKN
19:23 15.9 °F 14.5 °F 1015.1 in NW 11.1 mph 11.1 mph 91 % 0.0 in 11.0 W/m2 BKN
19:28 15.9 °F 14.4 °F 1015.1 in North 14.8 mph 14.8 mph 91 % 0.0 in 7.0 W/m2 BKN
19:33 15.8 °F 14.6 °F 1015.1 in NW 13.0 mph 13.0 mph 92 % 0.0 in 9.0 W/m2 BKN
19:38 15.7 °F 14.4 °F 1015.1 in NNW 16.7 mph 16.7 mph 92 % 0.0 in 7.0 W/m2 BKN
19:44 15.7 °F 14.4 °F 1015.1 in WNW 18.5 mph 18.5 mph 92 % 0.0 in 0.0 W/m2 BKN
19:49 15.6 °F 14.3 °F 1015.1 in WNW 18.5 mph 18.5 mph 92 % 0.0 in 0.0 W/m2 OVC
19:54 15.4 °F 14.1 °F 1015.5 in WSW 16.7 mph 16.7 mph 92 % 0.0 in 0.0 W/m2 OVC
19:59 15.3 °F 14.0 °F 1015.5 in SW 11.1 mph 11.1 mph 92 % 0.8 in 0.0 W/m2 RA
20:04 15.2 °F 13.9 °F 1015.5 in Calm   1.6 mph 92 % 2.0 in 0.0 W/m2 RA
20:09 15.2 °F 13.9 °F 1015.5 in WSW 16.7 mph 16.7 mph 92 % 3.0 in 0.0 W/m2 RA
20:19 14.9 °F 13.6 °F 1015.1 in WNW 29.6 mph 29.6 mph 92 % 4.3 in 0.0 W/m2 RA
20:24 14.8 °F 13.5 °F 1015.5 in NW 37.0 mph 37.0 mph 92 % 6.3 in 0.0 W/m2 RA
20:29 14.8 °F 13.5 °F 1015.5 in WNW 38.9 mph 38.9 mph 92 % 7.4 in 0.0 W/m2 RA
20:34 14.8 °F 13.6 °F 1015.5 in WNW 31.5 mph 31.5 mph 92 % 9.4 in 0.0 W/m2 RA
20:39 14.9 °F 13.6 °F 1015.8 in ENE 37.0 mph 37.0 mph 92 % 13.2 in 0.0 W/m2 RA
20:44 14.8 °F 13.6 °F 1015.8 in ENE 31.5 mph 31.5 mph 92 % 16.8 in 0.0 W/m2 RA
20:49 14.8 °F 13.5 °F 1016.1 in WNW 30.6 mph 30.6 mph 92 % 18.3 in 0.0 W/m2 RA
20:54 14.7 °F 13.4 °F 1016.1 in WNW 31.5 mph 31.5 mph 92 % 19.3 in 0.0 W/m2 RA
20:59 14.7 °F 13.6 °F 1016.1 in WNW 29.6 mph 29.6 mph 93 % 19.0 in 0.0 W/m2 RA
21:04 14.7 °F 13.4 °F 1016.5 in West 31.5 mph 31.5 mph 92 % 18.3 in 0.0 W/m2 RA
21:09 14.7 °F 13.4 °F 1016.5 in ENE 24.1 mph 24.1 mph 92 % 18.5 in 0.0 W/m2 RA
21:14 14.6 °F 13.3 °F 1016.5 in ENE 20.4 mph 20.4 mph 92 % 19.0 in 0.0 W/m2 RA
21:19 14.6 °F 13.3 °F 1016.5 in ENE 13.0 mph 13.0 mph 92 % 18.3 in 0.0 W/m2 RA
21:24 14.4 °F 13.2 °F 1016.8 in ENE 12.9 mph 12.9 mph 92 % 16.8 in 0.0 W/m2 RA
21:29 14.3 °F 13.1 °F 1016.8 in West 11.1 mph 11.1 mph 92 % 16.3 in 0.0 W/m2 RA
21:34 14.3 °F 13.0 °F 1016.5 in WSW 5.6 mph 5.6 mph 92 % 14.7 in 0.0 W/m2 RA
21:39 14.2 °F 12.9 °F 1016.8 in Calm     92 % 10.9 in 0.0 W/m2 RA
21:40 14.3 °F 13.0 °F 1016.8 in Calm     92 % 10.9 in 0.0 W/m2 RA
21:45 14.2 °F 12.9 °F 1016.5 in Calm     92 % 8.6 in 0.0 W/m2 RA
21:50 14.2 °F 12.9 °F 1016.5 in Calm     92 % 7.6 in 0.0 W/m2 RA
21:55 14.2 °F 13.1 °F 1016.5 in Calm     93 % 7.1 in 0.0 W/m2 RA
22:00 14.3 °F 13.2 °F 1016.5 in Calm     93 % 6.6 in 0.0 W/m2 RA
22:05 14.3 °F 13.2 °F 1016.5 in Calm     93 % 6.3 in 0.0 W/m2 RA
22:10 14.3 °F 13.2 °F 1016.5 in Calm     93 % 5.8 in 0.0 W/m2 RA
22:15 14.3 °F 13.2 °F 1016.5 in Calm     93 % 5.1 in 0.0 W/m2 RA
22:20 14.3 °F 13.2 °F 1016.5 in Calm     93 % 5.1 in 0.0 W/m2 RA
22:25 14.2 °F 13.1 °F 1016.5 in Calm     93 % 4.6 in 0.0 W/m2 RA
22:30 14.3 °F 13.2 °F 1016.5 in Calm     93 % 4.3 in 0.0 W/m2 RA
22:35 14.3 °F 13.2 °F 1016.5 in Calm     93 % 3.8 in 0.0 W/m2 CLR
22:40 14.2 °F 13.1 °F 1016.5 in Calm     93 % 3.3 in 0.0 W/m2 CLR
22:45 14.2 °F 13.1 °F 1016.5 in Calm     93 % 3.0 in 0.0 W/m2 RA
22:50 14.4 °F 13.3 °F 1016.5 in WNW 6.4 mph 6.4 mph 93 % 2.5 in 0.0 W/m2 CLR
22:55 14.6 °F 13.4 °F 1016.8 in WNW 9.7 mph 9.7 mph 93 % 2.3 in 0.0 W/m2 CLR
23:00 14.6 °F 13.4 °F 1016.8 in NW 16.7 mph 16.7 mph 93 % 1.5 in 0.0 W/m2 CLR
23:05 14.4 °F 13.3 °F 1016.8 in NW 18.5 mph 18.5 mph 93 % 1.5 in 0.0 W/m2 CLR
23:10 14.3 °F 13.2 °F 1016.8 in NW 18.5 mph 18.5 mph 93 % 1.0 in 0.0 W/m2 CLR
23:15 14.3 °F 13.2 °F 1016.8 in NW 18.5 mph 18.5 mph 93 % 0.8 in 0.0 W/m2 CLR
23:20 14.3 °F 13.2 °F 1016.8 in NW 5.6 mph 5.6 mph 93 % 0.5 in 0.0 W/m2 CLR
23:25 14.4 °F 13.3 °F 1016.8 in NW 27.8 mph 27.8 mph 93 % 0.5 in 0.0 W/m2 CLR
23:30 14.4 °F 13.3 °F 1016.8 in NW 14.8 mph 14.8 mph 93 % 0.3 in 0.0 W/m2 CLR
23:35 14.4 °F 13.3 °F 1016.8 in WNW 9.7 mph 9.7 mph 93 % 0.3 in 0.0 W/m2 CLR
23:40 14.4 °F 13.3 °F 1016.8 in WNW 9.7 mph 9.7 mph 93 % 0.3 in 0.0 W/m2 CLR
23:45 14.4 °F 13.3 °F 1016.8 in NW 5.6 mph 5.6 mph 93 % 0.0 in 0.0 W/m2 CLR
23:50 14.4 °F 13.3 °F 1016.8 in NW 17.7 mph 17.7 mph 93 % 0.0 in 0.0 W/m2 CLR
23:55 14.4 °F 13.3 °F 1016.8 in WNW 9.7 mph 9.7 mph 93 % 0.0 in 0.0 W/m2 CLR
Lo Temps de Massalio
Compliments of Weather Underground - 1.25 mb